Погода в Аниканове

Россия / Орловская область     53°16′33″N   36°24′13″E
темп.,
°C
ветер,
м/с
пор.,
м/с
влажн.,
%
обл.,
%
осадки,
мм/ч
давл.,
гПа
погр.,
м
10 мая, пн
пн1000:00+3сз410835 0.0 1022161
03:00+2ссз412824 0.0 1024221
06:00+2ссз311790 0.0 1025232
09:00+9с610600 0.0 1026976
12:00+11с810470 0.0 10251563
15:00+12ссв8114924 0.0 10241507
18:00+11ссв7116129 0.0 10241177
21:00+9ссв61464100 0.0 1025610
11 мая, вт
вт1100:00+7ссв5137394 0.0 1025401
03:00+7ссв61478100 0.0 1024354
06:00+7ссв6158597 0.0 1024389
09:00+12св712775 0.0 1023545
12:00+17св8117112 0.0 1022930
15:00+18всв8127194 0.3 10211469
18:00+11в4109198 0.8 1024567
21:00+8вюв35872 0.8 102565
12 мая, ср
ср1200:00+7в38930 0.0 1026142
03:00+5в229388 0.0 102630
06:00+7в2591100 0.0 1026151
09:00+11св4573100 0.0 1024537
12:00+10всв6682100 0.5 1023584
15:00+9св3383100 1.6 1021327
18:00+10в3781100 0.1 1019786
21:00+7в41293100 0.1 1019316
13 мая, чт
чт1300:00+9вюв714927 0.3 1018509
03:00+9вюв5129399 0.3 1018448
06:00+9вюв51393100 0.5 1018482
09:00+12юв4884100 0.6 1018557
12:00+15ююв4673100 0.0 1018978
15:00+17ююв576491 0.2 10171583
18:00+15юв2479100 0.2 101788
21:00+13вюв348397 0.2 101745
14 мая, пт
пт1400:00+13вюв3683100 0.0 1017104
03:00+12вюв4885100 0.0 1017132
06:00+13вюв5129390 0.0 1016319
09:00+18вюв71280100 0.0 1015650
12:00+21юв71170100 0.0 10131109
15:00+17юв41089100 3.8 1014463
18:00+19юв71278100 1.4 1012427
21:00+16ю41291100 5.9 1011264